Theta_e
352 347 340 339 339 345 346 347 345 344 344 343 343 342 340 336 333 332 334 336 335 328 322 320 319 319 322 327 328 333 336 334 330 330 334 338 342 343 344 343 343 344 344 344 344 343 344 343 343 342 341 341 340 339 339 338 338 337 337 336 336 335 336 336 337 338 338 339 340 341 341 341 341 341 340 341 341 342 341 341 340 340 340 340 340
351 347 343 342 339 342 345 347 345 346 344 344 343 342 340 335 334 333 335 336 333 326 320 320 320 319 323 327 329 335 337 336 334 337 340 342 343 344 344 344 344 345 344 344 344 343 343 344 343 343 342 342 341 340 339 339 337 336 336 335 334 334 334 334 336 337 338 338 339 339 340 341 341 340 340 341 340 341 341 340 340 339 339 339 339
350 348 348 347 341 341 344 346 346 346 345 345 343 342 339 335 335 334 336 335 331 324 319 322 322 321 327 330 331 337 338 339 340 342 344 343 344 344 345 344 344 344 344 344 343 343 343 343 342 340 338 337 338 339 339 338 337 335 335 334 333 332 333 334 336 337 337 337 337 338 339 340 341 341 341 340 340 340 340 340 339 339 339 339 339
349 349 349 349 344 342 344 347 346 346 345 344 343 342 338 335 336 335 336 334 328 321 318 324 324 324 332 333 335 338 338 340 341 343 345 345 345 344 344 344 345 344 344 343 343 343 341 339 335 331 328 328 328 330 335 337 335 334 334 334 332 331 333 334 335 337 337 336 335 336 337 339 340 341 342 341 340 340 340 339 339 338 339 338 338
348 348 349 349 347 346 345 347 347 346 345 344 343 340 337 336 336 336 336 333 325 318 319 325 325 328 334 333 335 338 338 340 341 343 344 345 345 345 345 345 345 344 344 343 343 341 337 333 327 324 325 327 326 323 326 330 332 333 333 333 330 328 331 333 334 335 336 337 337 336 336 337 338 340 341 341 341 340 340 339 339 338 338 337 337
346 346 348 348 348 348 346 347 346 346 345 344 342 339 336 336 336 337 336 331 321 315 321 326 327 330 333 333 337 339 338 340 340 341 344 345 345 345 345 345 345 345 344 343 342 338 332 330 327 328 330 330 329 324 323 326 329 331 332 332 328 324 329 332 333 333 335 337 337 335 334 335 336 338 339 339 340 339 339 339 339 338 337 337 336
345 345 346 347 348 348 347 347 347 346 344 344 341 338 336 337 337 337 334 328 318 318 324 325 328 333 334 335 338 338 339 341 339 341 344 345 345 345 345 345 345 344 344 343 342 338 334 333 333 335 334 333 332 327 324 327 329 327 328 327 323 324 328 330 331 331 333 335 335 334 333 334 335 338 338 338 338 338 338 338 338 338 338 337 334
346 344 346 347 348 347 347 346 345 345 343 342 339 338 337 337 337 336 333 324 316 322 326 327 331 335 335 336 338 338 341 341 340 342 344 344 345 345 345 344 344 344 344 342 341 338 336 337 337 336 335 334 333 328 323 325 327 326 323 319 319 327 330 330 331 332 334 333 332 332 333 334 335 338 338 338 338 338 338 337 338 338 338 336 334
345 344 347 347 348 347 346 345 344 343 342 340 339 338 338 338 337 335 330 319 318 327 329 331 334 336 336 337 339 340 342 341 342 343 343 344 344 345 344 344 344 343 342 340 337 335 335 337 337 336 335 332 330 328 323 322 323 322 317 314 320 328 330 330 331 332 334 334 332 333 333 333 335 338 338 337 336 336 336 336 336 335 336 336 335
344 345 348 347 346 345 344 345 343 342 341 340 339 339 339 338 336 333 325 317 322 331 334 334 336 337 338 338 339 341 342 342 342 343 343 344 344 344 343 343 342 341 341 337 334 335 336 336 337 335 333 329 326 324 321 318 317 317 316 318 325 328 330 331 332 331 332 333 332 333 333 333 334 337 337 337 336 335 334 333 333 333 334 334 334
345 346 347 346 346 344 343 343 342 342 341 340 340 339 339 337 333 328 320 319 326 333 336 337 338 338 338 339 340 341 342 342 343 343 344 343 343 343 343 342 341 341 339 334 331 334 335 334 335 332 328 325 323 320 316 315 316 319 322 327 330 330 332 333 334 332 329 330 330 331 333 333 333 335 336 336 335 335 335 334 333 333 333 332 333
345 347 346 345 345 343 342 342 341 341 341 340 339 338 338 334 331 324 318 321 327 332 336 339 338 338 339 339 341 342 342 343 343 343 343 344 343 343 342 341 341 339 336 332 330 332 333 333 333 329 324 321 320 316 314 319 324 327 329 331 331 332 333 334 334 330 330 332 332 332 332 332 332 334 335 335 335 335 335 335 334 333 333 332 332
346 347 345 344 345 343 341 341 340 339 340 339 338 337 334 331 329 324 321 322 326 330 336 339 338 339 339 340 341 342 342 343 343 343 343 344 343 342 341 341 340 337 332 330 330 331 334 335 333 329 323 319 317 316 321 328 331 332 332 332 333 334 334 334 334 332 332 334 333 332 331 332 332 332 333 334 335 335 334 334 334 333 332 332 331
348 348 345 344 344 343 341 340 340 339 339 338 336 334 331 329 327 326 325 326 327 331 337 338 338 340 340 340 340 341 342 343 343 343 342 343 342 341 341 340 338 333 330 329 331 330 333 335 332 329 324 319 316 319 328 332 332 332 333 333 333 335 335 334 333 334 334 334 334 333 332 332 332 332 332 333 334 334 333 333 333 332 332 331 331
349 348 345 344 343 342 341 339 338 338 337 335 332 329 328 328 327 328 329 332 331 331 337 339 339 340 340 340 340 341 342 342 342 342 342 341 341 340 340 339 335 330 329 330 331 331 331 332 331 328 323 318 316 320 330 332 332 333 333 334 334 335 333 332 333 334 334 334 333 332 331 331 331 331 332 332 333 333 332 332 332 332 331 331 330
349 347 345 344 343 342 341 340 338 335 333 331 329 329 329 329 329 333 335 337 336 334 336 338 338 340 341 340 340 341 341 341 342 341 341 340 340 339 339 338 333 329 330 331 332 332 331 331 331 328 321 317 315 320 329 331 332 333 333 334 335 334 332 331 332 333 334 333 332 330 331 332 331 332 332 332 332 332 331 331 331 331 330 330 330
349 346 345 344 343 342 341 340 336 331 331 330 330 333 333 332 332 336 339 340 340 338 336 336 338 340 341 340 339 340 340 340 340 340 340 340 339 339 339 337 331 329 330 331 332 332 332 331 331 328 321 317 315 319 326 331 332 333 334 334 334 334 334 335 334 335 334 333 332 329 331 332 331 332 332 332 332 332 331 331 331 330 330 330 330
347 345 345 344 343 342 342 339 334 333 335 333 333 335 336 334 333 336 339 339 339 339 339 337 337 338 340 340 339 339 339 339 339 339 339 339 339 338 338 335 330 329 330 331 333 333 332 332 332 329 323 317 315 317 324 330 333 333 334 333 334 334 334 334 334 334 334 333 332 330 330 332 332 332 332 332 332 332 331 331 331 330 330 329 329
347 346 344 343 343 342 342 340 338 339 339 338 336 335 335 335 334 335 338 338 338 339 340 339 337 336 338 339 339 339 338 339 338 338 339 338 339 338 337 335 331 329 329 330 332 333 333 332 331 331 325 318 315 316 322 330 332 333 333 334 335 334 334 334 334 334 333 333 332 330 331 332 333 334 333 332 332 332 332 331 330 330 330 329 328
346 344 343 342 343 343 342 341 341 339 338 339 336 334 333 334 333 333 335 337 338 339 339 338 338 337 336 336 337 337 338 339 338 337 338 338 337 338 336 334 332 330 329 329 331 333 333 332 332 331 326 320 316 317 325 332 333 335 335 336 337 335 333 332 334 334 333 333 331 331 332 333 334 334 332 331 331 331 331 330 330 330 329 329 328
343 342 342 342 342 343 342 342 342 338 339 338 335 334 331 331 333 333 334 335 337 338 338 338 338 337 335 334 333 334 337 337 337 338 338 337 338 337 336 334 333 331 329 329 330 333 333 332 332 331 328 323 318 319 329 334 335 336 336 337 337 337 335 333 334 334 334 333 331 331 332 333 333 332 332 331 331 330 329 329 329 329 329 328 327
341 342 342 342 343 343 343 342 342 340 340 338 337 337 331 332 335 335 335 334 335 337 337 338 337 337 335 332 333 335 337 335 335 337 336 335 336 336 335 334 333 331 330 329 329 332 334 333 332 331 329 325 321 322 330 334 335 336 337 337 337 337 336 336 336 335 334 332 330 331 331 331 331 331 331 330 329 328 328 328 328 327 327 327 327
341 343 342 343 342 343 343 342 341 341 341 341 340 337 331 334 337 336 336 334 334 335 336 338 338 338 335 333 337 339 339 338 336 337 336 334 334 334 334 334 333 332 330 330 328 330 333 333 332 332 330 328 328 327 330 334 334 336 336 336 336 336 336 335 336 334 333 331 328 329 330 330 330 330 330 329 328 328 327 327 327 327 326 326 326
341 342 342 342 342 342 343 343 341 341 341 341 341 337 334 339 339 337 337 336 335 334 336 338 339 339 336 333 338 341 341 340 339 339 339 337 334 332 331 331 332 332 331 330 329 329 331 333 333 332 331 333 336 334 332 330 331 336 338 337 335 335 335 335 335 333 332 330 327 328 330 329 330 330 329 329 329 328 327 327 326 326 326 326 325
341 342 342 342 343 342 342 343 342 342 342 341 339 336 338 342 340 338 338 338 337 336 338 339 339 340 338 336 338 341 341 340 340 341 340 339 337 334 331 329 330 330 331 331 329 328 330 333 333 332 331 335 338 337 335 331 331 336 338 337 335 335 335 333 335 333 332 329 326 328 330 330 330 329 329 327 328 328 327 326 326 325 325 325 326
342 343 343 342 342 343 343 344 342 342 342 340 340 338 339 342 340 339 340 339 339 339 340 340 339 340 340 339 339 340 341 340 340 340 340 339 339 337 334 332 330 329 330 330 330 329 330 334 335 332 331 334 338 338 337 335 335 337 337 336 335 335 334 334 334 333 333 329 326 328 329 329 330 329 328 327 327 327 326 327 325 324 324 325 326
343 343 343 343 342 343 344 344 343 342 342 341 341 338 339 341 340 340 340 340 340 340 341 340 340 340 341 341 340 341 340 340 340 340 340 340 339 338 337 336 335 333 331 329 332 333 332 336 338 334 331 334 338 337 336 336 334 334 336 335 335 335 333 333 334 333 333 330 325 326 329 329 329 329 328 327 327 327 327 327 326 324 325 326 326
344 344 344 343 342 343 343 343 342 342 343 341 341 340 339 341 341 340 341 341 341 340 341 341 341 341 341 342 341 341 340 339 340 341 340 339 339 339 336 336 336 336 334 332 334 335 332 335 339 336 334 337 338 337 335 335 332 333 335 334 335 334 333 333 333 333 333 332 327 324 327 329 329 329 328 328 328 328 328 328 327 326 326 325 326
345 345 345 344 343 344 342 342 342 342 343 342 341 342 341 342 341 340 341 343 342 341 341 342 341 340 340 340 341 341 340 339 338 340 341 340 340 338 336 335 335 336 335 332 334 337 332 333 337 337 337 338 337 336 335 334 331 332 334 334 335 334 334 333 333 333 332 332 330 324 325 328 328 329 329 329 329 329 329 327 326 325 325 325 325
346 346 346 345 345 344 344 343 343 343 343 342 343 343 343 342 342 341 342 342 341 341 342 341 340 340 339 340 341 341 341 340 338 338 339 339 340 338 336 336 335 335 335 331 332 336 334 333 336 336 337 337 336 336 334 333 332 332 332 334 335 334 334 333 333 334 333 333 332 327 325 327 328 328 328 330 330 329 328 326 325 325 325 325 325
347 346 346 346 345 345 345 344 343 343 343 343 344 344 343 343 343 344 343 341 341 341 341 340 340 340 339 340 341 342 341 340 339 339 337 337 338 338 337 336 335 334 335 333 333 335 335 334 335 336 337 337 336 335 333 332 331 330 332 334 335 334 333 333 333 334 335 334 334 330 325 326 328 327 328 330 331 329 327 326 326 326 325 324 324
347 347 347 346 346 345 345 344 343 343 343 343 344 344 344 344 344 344 343 342 342 341 340 340 340 340 339 339 340 341 340 339 339 340 338 337 337 337 337 337 337 336 335 335 333 333 335 335 335 336 337 337 337 335 334 332 330 330 332 333 334 334 334 334 334 334 335 335 334 332 327 324 326 327 328 330 330 328 327 328 328 326 325 324 324
346 345 347 347 346 346 345 346 345 345 344 344 344 345 345 345 344 344 343 342 341 340 340 340 340 340 339 338 338 339 340 340 340 339 338 338 339 338 337 338 338 337 336 336 335 334 334 335 335 335 336 337 337 336 334 332 330 331 332 333 333 333 334 334 334 334 335 335 333 332 330 326 324 326 329 329 328 327 328 328 328 326 325 325 324
346 345 346 347 346 346 345 346 345 345 345 344 344 344 344 344 343 343 341 341 340 340 339 338 339 338 338 338 338 338 339 339 339 339 338 338 339 339 338 338 338 337 337 336 336 334 334 335 335 335 336 337 336 335 334 333 332 332 332 332 333 332 334 334 334 335 334 334 333 332 332 330 327 327 328 328 327 326 328 329 328 327 325 325 324
345 345 345 345 345 344 344 345 345 344 345 344 344 343 344 343 342 341 341 339 340 340 339 338 337 338 338 338 337 338 338 339 339 339 339 339 339 339 338 338 338 337 337 336 335 334 334 334 333 333 335 336 337 336 335 334 334 333 332 333 333 333 334 334 335 335 334 334 333 333 332 331 330 329 327 326 325 325 327 328 327 326 325 325 324
345 344 343 344 344 344 343 344 344 344 344 343 343 343 343 343 341 341 341 339 340 340 338 338 338 338 338 338 337 338 337 338 339 338 339 338 338 338 338 337 337 337 336 336 335 334 333 333 331 331 332 334 335 336 335 335 334 334 334 333 333 333 334 335 336 335 335 334 334 334 332 332 332 330 328 326 324 324 326 327 326 325 325 325 325
344 343 343 343 344 344 343 343 343 343 343 342 342 343 342 342 342 341 340 340 341 340 338 338 338 337 337 337 337 337 337 337 337 337 337 337 337 337 337 335 335 336 336 336 335 335 334 333 332 331 332 333 333 334 334 334 334 333 335 334 334 335 335 336 336 335 335 335 334 334 334 333 332 331 330 329 326 324 324 325 324 324 325 325 325
344 344 343 343 343 343 343 342 344 344 343 342 343 343 342 342 342 341 340 340 340 340 339 338 338 337 337 337 337 337 336 336 336 336 335 335 336 336 336 335 335 335 335 335 336 335 335 334 333 332 332 332 332 333 334 334 333 332 333 334 333 335 335 335 336 335 335 334 334 335 334 333 332 331 330 330 330 323 320 322 321 323 325 324 324
345 344 344 344 343 343 343 342 342 344 343 342 342 342 342 342 342 342 342 341 340 341 340 338 337 337 337 337 337 337 337 337 336 337 335 336 337 336 335 335 335 336 334 332 334 334 335 334 334 333 332 331 332 333 333 333 332 332 332 332 332 334 335 336 335 335 335 334 334 335 334 334 331 330 330 331 330 324 321 322 321 323 324 324 324
345 345 344 344 343 343 342 342 342 343 343 342 341 341 341 340 341 341 342 341 341 342 340 339 338 338 337 337 338 338 338 337 336 338 336 335 336 336 336 336 335 336 334 332 332 332 334 335 334 333 332 332 332 333 332 331 331 332 332 332 333 334 335 336 336 335 335 334 334 334 334 333 331 330 331 331 330 327 325 325 324 324 324 324 324
346 345 345 344 344 342 342 343 342 342 342 341 341 341 340 340 340 340 341 341 341 341 341 341 340 339 339 337 338 338 337 336 336 337 336 334 335 336 336 336 335 335 336 335 333 332 333 334 335 334 333 332 332 332 332 332 332 332 331 332 332 332 334 336 336 335 336 335 335 334 333 333 332 331 331 331 331 329 328 327 327 326 325 323 323
346 345 345 344 343 343 342 342 341 340 341 340 340 341 341 341 341 341 341 341 340 340 340 341 340 340 338 337 338 338 337 337 335 336 336 335 334 335 336 336 335 335 335 336 335 333 332 334 336 335 334 333 333 333 333 333 332 331 331 331 331 331 333 336 336 335 336 335 334 333 333 333 332 331 331 330 331 331 330 329 329 328 326 324 322
346 345 344 344 343 342 342 341 340 340 341 340 340 340 341 341 340 339 340 340 340 340 340 340 340 339 338 338 339 338 337 337 337 336 336 335 334 335 336 336 336 335 334 335 336 334 333 333 335 335 334 333 334 333 334 333 331 330 331 331 332 333 335 336 335 336 335 334 334 333 333 332 332 331 330 330 331 331 330 330 331 330 328 327 324
344 343 343 343 342 341 341 340 340 340 340 340 339 339 339 339 339 338 338 338 338 338 338 338 339 340 339 339 339 338 338 338 338 338 337 336 336 336 336 336 336 335 335 335 336 335 335 334 334 335 334 334 333 333 333 333 332 331 331 332 333 334 336 336 335 335 335 334 333 332 332 332 332 332 331 330 331 331 331 331 331 331 330 328 327
343 342 342 342 342 341 341 340 340 340 340 340 340 339 338 339 339 339 339 338 338 338 338 338 339 340 339 339 339 339 338 338 338 337 335 335 336 336 336 335 335 334 335 335 335 335 335 334 334 334 334 334 334 334 334 333 332 331 331 333 333 334 335 335 336 335 335 334 333 332 332 332 332 332 331 331 331 331 331 331 330 331 331 330 328
342 342 342 342 341 342 341 340 341 340 340 340 340 339 339 339 339 339 339 339 339 339 340 339 339 339 339 339 339 339 339 338 337 336 335 335 335 335 336 334 334 334 335 335 335 335 335 335 334 333 333 334 334 334 334 333 332 332 331 332 333 334 335 335 336 336 335 333 333 332 332 332 332 332 332 332 331 331 330 330 330 331 331 331 330
341 341 341 341 342 342 342 341 341 340 340 340 340 340 339 339 339 339 339 339 339 340 339 339 338 338 338 338 338 339 339 339 338 337 337 336 335 336 336 335 334 334 335 336 336 335 335 335 334 333 333 334 334 334 334 333 332 332 332 331 331 332 334 335 336 336 336 334 332 333 333 332 332 333 333 332 332 332 330 330 331 331 331 330 331
339 340 340 339 340 340 341 341 341 340 340 340 340 340 339 339 339 339 339 339 340 339 339 339 338 338 338 339 338 338 339 339 339 338 337 337 336 335 336 336 335 334 335 336 336 336 336 335 334 334 333 333 333 333 333 332 332 332 331 330 332 333 334 334 333 334 336 336 334 333 333 332 332 332 332 332 332 331 331 331 331 331 331 330 330
338 338 338 338 338 339 340 339 339 339 340 340 340 340 340 340 340 340 340 340 340 339 339 338 338 338 338 338 338 338 338 339 339 339 338 338 337 336 335 336 336 335 334 335 336 336 336 336 335 334 334 334 333 332 332 332 331 331 331 331 333 334 333 334 333 331 334 336 335 334 333 332 331 330 331 333 332 331 331 331 331 331 331 330 329
337 337 337 337 337 338 337 337 338 338 338 339 339 339 339 339 339 339 339 339 339 338 338 338 338 337 337 338 338 338 338 338 338 338 338 338 338 337 336 337 337 337 336 335 335 335 335 335 335 334 334 333 333 333 333 332 331 331 331 332 334 334 334 334 334 333 333 334 335 334 333 332 332 331 331 332 332 332 331 330 330 331 330 330 330
336 336 336 337 337 337 337 337 336 336 336 336 336 337 337 336 337 337 337 337 337 336 336 336 336 336 336 337 337 337 337 336 336 337 337 338 338 338 337 337 337 337 336 336 335 335 335 335 335 334 334 333 333 333 333 333 332 331 331 333 334 333 333 334 334 334 334 334 334 334 332 332 333 333 332 332 332 332 332 331 330 330 330 329 330
Wind_Speed
17 19 19 17 16 17 17 18 18 18 18 18 18 18 17 16 16 15 14 12 12 11 12 14 16 16 17 19 17 17 17 17 17 15 14 13 12 12 13 14 15 16 15 15 15 15 15 15 15 14 14 14 14 14 14 15 16 16 18 19 20 20 19 19 20 22 23 23 23 23 23 22 22 21 21 21 21 21 20 20 21 22 22 22 22
20 19 18 17 16 17 18 18 19 18 18 18 18 18 18 17 16 14 13 12 11 11 13 15 16 18 19 19 18 18 18 17 16 15 13 12 13 14 15 15 16 16 16 15 15 15 15 15 14 14 14 13 13 13 13 14 14 16 18 19 20 20 18 18 18 19 21 22 24 24 23 23 22 21 21 21 21 21 21 21 21 22 22 22 22
22 19 16 16 17 17 18 19 19 19 19 19 19 19 18 17 16 14 12 12 12 11 14 16 17 20 21 19 19 19 19 17 16 15 13 13 14 15 15 15 16 16 16 16 15 15 14 14 13 13 13 12 12 12 12 13 13 15 17 18 19 19 18 18 17 18 18 19 20 21 22 23 22 19 19 20 21 22 21 21 20 20 20 20 21
23 19 15 15 17 18 19 20 20 20 19 19 19 20 19 18 15 14 12 12 12 12 14 17 19 22 22 20 19 19 18 16 15 15 14 14 15 15 16 16 16 16 16 15 15 14 13 13 13 13 13 12 11 10 10 11 12 14 16 17 17 16 16 16 16 15 16 18 19 18 19 21 20 19 18 19 20 20 20 20 20 20 20 19 20
23 18 15 15 16 18 19 20 21 20 20 20 20 20 19 17 15 14 13 12 11 13 15 18 20 23 21 20 20 19 17 16 14 13 14 15 15 15 16 16 16 16 15 15 14 13 12 12 12 12 11 11 10 9 8 9 11 13 15 16 16 15 13 12 13 13 13 14 14 17 18 18 17 17 16 17 18 18 18 19 19 19 19 19 19
21 18 16 16 15 18 20 21 21 21 20 21 21 21 19 17 15 14 13 12 12 14 17 19 22 23 21 20 19 18 16 14 13 12 13 15 15 16 16 16 15 15 14 14 13 12 12 12 11 11 10 11 11 10 9 10 12 13 14 15 15 14 11 10 9 9 8 7 9 14 17 16 15 15 15 15 16 16 17 18 18 18 18 18 18
21 20 18 17 15 18 21 21 21 21 21 22 22 21 19 17 15 14 13 12 13 16 18 20 23 23 21 20 19 17 15 13 13 13 14 15 15 16 16 16 15 14 13 13 12 12 11 10 10 10 10 10 11 11 10 11 12 13 13 13 14 14 13 10 8 5 5 6 10 14 15 15 14 13 13 14 15 16 17 18 18 18 17 16 17
19 19 19 18 15 19 22 22 22 22 22 22 22 21 19 16 15 14 13 12 14 17 19 21 23 22 21 20 19 16 14 13 13 14 15 16 16 16 15 15 14 13 12 11 11 11 10 10 10 9 9 10 10 10 10 10 12 12 12 13 15 15 13 11 10 8 9 11 14 15 15 16 14 13 14 15 15 15 16 17 18 17 17 16 17
18 19 20 18 15 21 23 22 22 22 22 22 21 20 17 15 14 14 12 13 16 19 20 21 22 21 21 20 19 15 13 14 14 14 16 17 16 15 15 14 13 12 11 10 9 9 9 10 9 8 8 10 10 10 10 10 11 12 14 16 16 13 11 12 14 14 15 17 19 17 16 15 15 14 13 14 14 14 14 15 15 16 16 16 17
19 19 19 16 16 22 23 22 22 21 22 21 20 18 15 15 14 13 12 15 18 21 20 20 21 21 20 19 17 15 13 14 14 15 16 16 16 15 14 13 12 10 9 9 8 8 9 9 9 8 8 9 10 10 11 12 14 16 17 17 15 11 10 11 12 13 14 14 16 17 16 16 15 14 13 13 13 13 14 14 15 15 15 15 15
20 19 17 16 18 23 23 22 22 21 21 20 18 15 14 14 13 12 13 17 20 20 19 19 21 20 18 17 16 15 13 13 13 15 15 16 16 15 13 12 10 9 8 8 7 8 10 10 9 8 8 10 10 12 14 17 19 19 18 15 12 9 7 7 8 11 14 13 14 14 16 16 14 14 14 13 13 14 14 15 16 15 15 14 14
20 18 17 19 21 23 23 21 21 20 19 17 16 13 13 13 12 12 14 18 19 17 17 18 21 19 17 16 15 15 13 12 13 13 13 14 15 14 12 10 9 8 8 7 7 9 10 10 10 9 9 10 12 14 19 21 21 18 16 12 9 7 8 10 10 12 15 14 14 14 16 16 14 14 14 13 12 13 13 14 14 15 14 14 14
19 19 21 20 19 21 22 20 19 17 16 15 13 13 12 12 10 11 14 16 17 15 16 19 20 17 16 15 15 14 13 12 12 12 12 12 12 12 11 9 8 8 8 7 8 9 9 10 10 9 9 10 13 17 21 22 19 16 13 10 9 10 11 14 13 13 14 14 13 13 15 15 14 13 13 13 12 12 12 13 13 13 14 14 14
19 21 23 19 18 20 19 18 17 14 13 13 12 12 11 11 9 11 12 13 14 14 16 19 19 16 14 14 14 13 12 12 12 12 12 11 10 10 9 7 7 9 8 8 8 8 8 9 9 9 9 10 13 18 21 20 18 15 13 11 10 11 12 13 13 14 14 14 14 14 14 14 14 13 12 12 12 12 12 12 12 12 13 14 14
18 19 21 20 18 17 17 16 15 13 12 12 11 11 10 9 9 11 12 11 11 12 15 18 17 14 12 13 13 13 12 12 11 11 11 10 8 7 7 6 8 10 9 8 8 7 8 9 9 8 8 10 13 18 20 18 17 15 14 12 11 12 13 13 13 13 13 13 13 13 14 13 13 12 11 12 12 12 11 11 11 11 12 13 13
18 19 20 20 19 16 15 14 14 13 12 11 10 10 9 9 10 11 11 11 10 10 14 16 15 12 10 11 12 12 12 11 11 10 9 8 7 6 5 5 9 10 9 8 8 7 8 8 8 8 8 10 12 16 19 18 16 14 13 12 13 13 14 15 13 12 12 11 12 12 13 13 11 11 11 12 12 12 11 11 11 11 12 13 13
19 19 20 21 19 17 15 13 14 13 12 11 10 10 9 9 11 11 11 11 11 10 11 13 14 12 9 10 11 11 11 11 10 9 9 8 7 6 5 6 10 10 9 8 7 7 7 7 7 7 8 9 12 14 16 16 15 14 14 15 17 16 16 16 14 13 13 12 13 13 13 11 10 11 12 12 12 12 11 11 11 11 12 12 13
19 20 21 21 19 16 16 14 14 13 11 10 10 10 9 9 11 11 12 12 12 11 11 11 12 13 10 10 10 10 10 10 10 9 9 8 8 7 7 8 11 10 9 8 7 7 6 6 5 6 8 9 11 13 14 15 16 17 17 18 18 17 16 15 13 12 12 12 11 12 13 11 10 11 12 12 12 12 11 11 10 10 10 11 12
20 21 22 22 19 16 17 15 15 14 11 10 8 9 9 10 12 11 12 13 13 13 12 11 11 11 11 11 11 10 10 9 10 9 9 10 10 9 8 9 11 11 9 8 7 7 6 6 5 5 7 9 11 12 14 17 18 18 17 15 14 13 13 12 13 12 12 11 10 12 13 10 10 11 11 11 10 11 10 9 9 9 10 10 10
17 19 22 22 20 18 18 18 17 14 13 12 9 10 12 12 13 12 13 14 14 14 13 13 11 10 10 11 12 11 10 9 9 9 9 9 10 11 9 10 12 11 10 9 7 7 6 6 6 5 6 8 11 14 18 18 17 15 14 13 12 13 14 11 11 11 10 9 9 11 11 9 10 10 9 9 8 9 9 9 9 9 9 9 9
14 20 20 21 24 22 20 20 18 16 16 15 13 13 14 14 13 13 14 15 15 15 14 13 12 9 9 10 10 9 9 8 8 8 7 8 9 11 11 10 12 12 10 9 8 7 7 7 7 5 6 8 11 16 18 16 14 13 13 13 13 13 12 9 10 10 10 10 9 11 10 10 10 9 9 9 8 9 8 9 9 9 9 9 9
18 20 18 21 24 23 21 22 21 20 19 16 15 14 14 15 13 12 13 14 15 15 14 11 10 9 8 10 9 7 6 6 8 8 7 8 10 11 11 11 12 13 11 9 8 7 7 7 8 7 7 8 12 15 15 14 13 11 11 10 11 11 9 8 12 12 12 10 10 12 10 10 8 7 8 7 7 8 8 8 8 9 9 9 9
17 17 18 20 22 21 21 24 23 22 21 18 16 14 14 16 14 12 11 12 13 13 12 10 9 9 9 10 10 8 7 6 8 8 8 8 9 10 11 12 13 12 12 10 8 7 6 7 9 8 8 9 11 12 12 12 11 9 9 9 10 10 8 8 10 10 9 7 9 12 10 9 8 7 7 7 8 8 9 9 9 9 9 9 9
17 17 19 19 21 21 21 22 22 21 20 20 17 13 14 17 16 14 12 11 12 12 12 12 12 11 11 11 11 12 12 11 9 8 9 9 7 8 10 11 13 13 12 11 9 8 7 7 9 10 10 10 9 8 7 7 5 5 6 7 7 7 7 8 9 9 9 7 9 11 10 9 8 7 7 7 8 8 8 9 9 9 9 9 8
15 16 18 18 20 21 21 21 20 19 18 19 17 15 16 19 19 16 14 14 14 14 14 15 15 13 12 12 13 14 13 13 12 10 10 9 6 6 8 10 12 12 13 12 10 10 9 8 9 12 12 10 10 10 9 5 1 2 2 3 4 4 5 8 9 10 8 6 8 9 10 9 8 7 7 7 7 7 8 8 8 8 9 9 7
14 14 13 14 18 19 19 19 19 19 18 18 18 18 18 18 20 18 17 16 15 15 16 16 15 15 14 14 14 13 12 12 13 13 11 8 5 4 5 7 10 11 13 14 11 11 11 10 10 12 13 11 9 8 10 8 3 2 3 4 4 5 6 8 9 9 6 3 6 10 11 9 8 8 6 7 6 6 7 7 8 9 10 8 7
15 14 13 12 17 18 18 19 19 20 19 19 18 18 17 16 18 18 18 16 16 15 15 14 14 14 14 13 14 12 12 13 12 13 13 10 7 6 6 6 8 10 13 14 12 12 13 12 12 13 14 12 10 10 10 8 5 5 6 5 5 5 5 9 9 6 4 2 5 10 11 9 8 8 6 7 7 6 7 6 7 10 10 8 7
15 15 13 12 14 15 16 19 19 19 18 17 16 16 15 14 15 17 16 14 15 14 10 9 10 12 12 10 11 13 13 13 11 12 14 14 12 12 11 9 11 11 13 15 14 15 15 15 15 14 14 13 12 11 12 9 6 7 7 6 6 5 5 7 8 5 3 2 5 9 10 9 8 7 6 6 7 6 7 6 6 8 8 7 7
15 15 14 12 12 13 14 16 19 18 15 13 12 13 12 11 12 15 17 12 9 9 5 6 8 9 12 12 12 13 13 12 12 13 15 15 15 15 14 12 14 13 13 15 16 17 16 16 17 15 14 15 13 11 12 10 8 7 7 7 6 5 5 6 7 6 5 4 5 8 9 10 9 8 7 6 7 7 7 6 6 7 7 7 6
15 15 15 14 13 13 13 14 16 16 14 11 9 10 10 9 10 12 15 10 6 6 7 10 11 10 13 15 14 13 14 13 13 14 16 16 16 16 14 14 16 15 14 16 17 18 18 16 16 16 15 15 14 11 12 11 10 8 8 9 8 6 6 6 7 8 7 6 5 6 8 10 10 10 8 7 8 8 7 6 6 7 7 7 6
14 14 14 15 14 14 13 12 14 14 13 12 9 10 10 10 9 9 9 7 7 8 10 12 12 13 15 15 14 14 14 14 13 13 14 16 16 16 15 15 17 16 15 16 17 18 18 17 16 16 16 14 12 12 14 12 10 10 10 10 9 8 8 7 8 9 8 7 6 5 8 10 11 10 9 8 8 7 6 6 7 7 8 7 6
13 12 12 14 15 14 13 12 13 13 12 11 10 10 10 9 9 7 7 8 9 10 11 10 9 11 13 13 12 12 13 14 15 13 12 13 15 16 16 16 16 16 16 17 19 18 18 19 17 15 15 14 13 13 14 14 12 12 12 10 10 10 10 9 8 9 9 8 5 4 6 9 10 10 10 9 8 6 5 7 8 7 7 7 7
13 14 13 13 14 14 14 13 12 12 12 12 12 11 10 9 8 8 8 9 9 10 10 8 7 8 10 11 12 13 15 17 18 17 14 11 12 15 16 15 15 17 18 17 18 16 15 17 16 14 14 15 15 14 15 16 14 12 13 12 12 11 10 10 9 10 10 8 7 6 4 7 10 11 11 11 9 8 7 7 8 7 7 7 6
13 13 13 13 14 13 12 12 12 11 12 12 12 11 8 8 7 8 9 9 8 9 8 6 7 9 10 11 13 14 14 16 16 15 15 14 13 14 15 16 16 17 18 17 17 15 15 16 14 13 13 14 15 15 16 16 14 13 13 14 13 11 11 11 10 11 11 9 10 9 5 6 9 9 10 11 10 9 9 8 7 7 7 7 7
13 12 11 11 11 9 6 8 8 8 9 9 8 7 6 7 6 8 9 8 6 7 7 7 8 10 11 12 12 12 12 13 13 12 14 15 14 14 15 18 18 18 18 18 19 17 16 17 15 14 14 15 16 16 16 15 15 14 14 14 13 12 11 11 11 12 11 11 12 11 9 9 8 8 9 9 10 10 9 8 7 7 7 8 8
13 12 11 10 10 8 5 5 6 6 8 8 8 6 6 7 6 7 8 7 6 7 8 8 9 10 11 12 11 12 11 12 13 14 14 14 14 15 15 18 19 19 20 19 20 20 18 18 17 15 14 15 16 17 18 17 16 16 15 15 14 13 12 12 12 12 12 12 12 11 11 11 10 10 9 7 9 11 9 8 9 9 8 8 8
13 12 11 9 8 8 6 5 5 5 6 7 8 7 7 8 7 8 8 8 10 10 10 9 8 10 11 11 11 12 12 11 11 12 14 14 15 15 16 18 19 20 20 20 21 20 20 19 19 18 15 14 14 16 19 18 18 16 15 16 14 13 13 12 13 12 12 11 11 11 11 11 12 12 11 7 8 10 9 9 10 10 10 9 8
12 11 10 9 8 8 6 5 4 4 4 5 6 5 5 5 6 7 8 9 10 10 8 8 9 10 10 11 11 11 10 10 10 10 13 13 13 16 18 19 19 20 20 21 21 21 21 21 21 20 17 15 12 12 14 16 20 18 13 15 15 15 13 12 13 12 13 12 10 11 10 10 12 12 12 11 9 9 10 10 10 12 12 9 9
11 10 9 8 8 8 6 5 4 4 3 3 3 3 2 2 3 4 5 6 7 7 6 6 8 9 9 10 11 10 9 9 11 11 13 13 14 16 18 20 20 20 21 22 22 21 22 22 22 21 19 18 15 12 11 12 18 17 13 14 15 15 15 12 13 12 12 13 10 11 11 11 11 11 13 14 12 10 12 12 12 14 14 11 9
10 9 9 8 8 8 7 7 5 4 3 3 2 1 0 1 2 2 4 5 5 7 6 5 5 7 8 9 9 10 10 11 13 14 14 13 15 16 18 21 20 20 21 22 23 23 23 23 23 23 21 21 19 16 15 13 15 15 12 17 18 12 14 12 14 12 10 12 11 10 11 10 10 11 13 15 13 11 12 12 13 13 14 14 12
8 8 8 8 7 7 7 6 5 5 4 3 3 2 2 3 3 3 4 5 5 6 7 6 6 7 7 8 9 10 11 12 13 14 14 12 14 16 17 20 21 21 21 20 22 23 23 22 22 23 23 22 20 18 17 14 11 10 11 16 16 9 10 11 13 12 9 10 11 10 11 11 11 11 13 14 13 13 13 11 13 13 12 14 14
7 7 7 7 7 7 6 6 5 5 4 3 3 2 1 2 3 4 5 5 5 4 6 6 7 8 8 8 10 10 11 12 12 14 15 13 14 16 17 19 21 22 22 20 21 22 22 22 20 21 22 22 21 18 16 12 7 6 7 10 9 7 8 9 11 11 8 9 11 11 11 13 13 11 12 13 14 15 14 12 14 15 13 13 14
7 7 7 7 7 7 6 5 5 4 3 3 2 3 2 3 3 5 7 7 6 6 6 7 7 8 8 9 10 10 11 11 12 14 15 15 15 16 17 19 20 21 22 22 22 23 23 23 20 20 21 21 20 18 16 14 11 10 6 5 5 4 4 7 9 11 11 10 10 11 12 13 13 13 11 12 14 15 15 13 14 16 15 14 13
7 7 6 6 6 6 6 5 4 4 3 2 2 3 3 5 4 5 6 7 8 9 9 9 9 10 10 11 12 11 12 13 13 14 16 16 15 16 18 19 20 21 21 22 23 24 25 24 22 21 21 19 19 19 18 18 15 13 7 3 4 3 2 6 9 11 13 11 10 11 11 11 12 12 11 13 13 13 14 14 13 15 16 16 15
7 7 5 5 5 5 5 4 4 3 2 2 1 2 3 4 4 5 6 7 9 10 11 11 11 11 12 13 13 13 14 15 16 17 18 18 16 16 18 20 20 20 20 22 24 25 25 24 22 22 22 21 20 18 17 18 20 18 12 4 3 2 2 6 8 7 11 12 11 12 11 11 12 11 12 13 13 12 13 14 14 14 13 16 18
8 6 5 4 5 5 4 3 3 2 1 1 1 2 3 4 5 7 8 8 9 9 10 10 9 10 11 12 13 13 14 15 17 18 18 19 18 18 18 19 20 20 21 22 23 24 25 25 24 23 23 23 21 16 15 17 19 21 20 14 8 5 2 8 7 2 7 10 11 12 11 11 12 13 13 13 13 13 14 14 15 14 12 14 18
7 5 5 6 5 4 4 3 2 1 0 1 2 3 4 6 6 7 9 10 11 11 12 12 12 12 12 11 12 13 14 15 16 16 16 17 19 19 18 19 20 21 22 22 23 24 25 25 25 24 24 24 23 18 17 18 16 18 22 20 15 11 4 8 5 2 4 6 9 12 11 11 13 13 13 14 14 14 15 15 13 13 14 14 16
7 5 6 6 5 5 4 3 3 2 1 1 3 4 5 7 8 9 10 11 12 13 15 15 14 13 14 14 13 14 14 15 16 16 16 17 18 20 20 21 21 22 23 23 24 23 24 24 23 24 25 24 25 24 21 20 18 16 18 20 19 14 7 7 8 6 3 2 5 8 9 12 15 13 13 15 16 16 16 15 13 13 14 14 16
6 5 4 4 3 4 4 4 4 4 4 3 4 4 6 8 9 10 11 12 13 14 15 15 16 15 15 15 15 16 16 15 15 17 17 17 19 21 22 23 22 24 25 25 24 23 22 24 24 24 26 24 24 25 22 22 20 15 15 18 16 12 6 5 8 7 3 2 3 3 6 10 12 15 18 17 17 17 16 15 15 16 14 13 16
5 4 4 3 2 2 3 3 3 4 4 4 5 6 7 8 10 11 12 13 14 15 16 17 17 17 17 17 17 18 17 16 16 17 18 19 20 21 23 24 23 23 25 26 26 24 23 24 24 24 27 27 25 23 22 21 20 17 16 17 14 10 6 4 6 7 5 3 2 3 7 9 8 13 20 18 16 17 17 17 17 16 15 14 16
6 5 5 3 2 2 2 2 3 3 4 5 6 7 8 9 10 11 12 13 14 15 16 17 18 18 19 19 19 19 17 17 17 18 20 20 21 22 23 24 24 23 24 26 25 25 24 24 24 24 25 27 25 22 21 21 21 20 19 19 18 17 14 9 11 12 8 4 4 3 6 11 10 12 17 18 17 16 17 18 18 17 17 15 16
Wind_Direction
120 135 146 152 157 158 161 162 163 160 156 152 150 147 143 140 137 136 130 119 108 107 106 105 106 109 115 118 114 104 99 99 100 99 96 92 88 90 93 99 101 100 99 97 94 92 92 89 89 89 88 90 92 95 96 95 95 97 95 91 88 86 84 84 84 84 84 84 82 80 78 77 76 78 78 76 76 76 75 73 72 70 70 70 69
125 135 140 151 158 160 164 166 165 163 159 155 153 149 146 145 144 142 133 121 113 114 112 111 112 113 118 119 116 108 103 102 102 100 95 93 93 96 99 103 103 101 100 99 97 95 94 91 92 92 91 92 93 95 96 96 99 100 98 96 93 90 88 86 87 86 85 83 81 79 77 76 75 75 76 76 76 76 74 73 72 71 69 68 69
124 128 132 148 157 162 165 167 166 164 161 158 155 152 151 151 150 146 134 124 120 120 118 117 117 119 121 121 118 112 106 105 105 100 94 96 98 100 103 105 104 103 102 101 99 97 95 95 95 95 95 93 93 95 98 101 104 103 101 98 94 92 94 93 91 89 85 80 75 75 76 74 73 72 72 74 75 74 74 73 72 71 69 68 67
119 124 133 148 155 162 164 166 166 165 163 160 157 155 157 157 154 147 136 129 126 124 121 122 122 124 124 124 121 114 111 110 108 103 99 100 102 104 105 106 105 105 103 101 99 97 96 97 97 97 93 87 87 93 100 106 108 106 104 101 96 92 96 100 100 97 92 84 74 72 74 71 70 70 69 70 71 73 74 75 74 73 71 69 67
120 125 137 144 152 161 164 166 166 166 164 161 160 160 161 160 156 148 139 133 130 126 125 125 126 128 128 127 122 116 116 116 111 105 104 104 106 107 107 107 107 106 103 100 97 97 99 98 98 94 86 81 80 87 103 116 115 110 109 107 100 95 97 100 103 104 107 101 84 77 77 69 66 68 69 70 72 74 75 75 74 73 71 70 69
124 130 139 144 151 161 165 167 166 166 164 163 163 163 164 162 158 149 142 136 132 129 128 129 130 131 132 129 124 121 121 120 117 111 110 109 109 109 108 107 106 104 102 99 95 95 98 99 97 91 82 79 79 81 98 120 123 119 117 114 106 102 98 95 93 92 93 89 85 84 80 77 72 68 71 75 76 77 77 75 74 72 71 71 70
128 136 145 147 154 163 165 166 167 166 164 164 165 166 166 163 158 149 144 138 135 132 131 132 132 133 133 129 126 127 126 122 123 120 117 115 113 112 111 110 107 104 102 99 96 94 95 94 91 88 85 83 82 80 94 119 126 125 122 118 113 104 94 90 89 79 55 61 91 94 85 86 85 77 76 77 76 77 76 76 75 73 73 72 71
135 143 147 148 158 166 165 165 166 166 165 165 166 167 166 162 155 150 146 139 137 134 132 133 132 132 131 130 130 131 128 127 127 124 122 119 117 116 115 114 111 109 106 104 101 98 95 94 89 86 88 88 85 81 94 120 130 128 122 118 114 102 87 76 65 57 57 78 99 100 94 92 89 85 81 79 77 77 77 76 75 73 72 72 70
145 146 147 151 161 167 165 165 166 166 165 166 166 166 165 160 154 152 146 140 139 135 133 133 131 132 133 133 134 133 132 131 128 127 126 123 121 119 119 117 114 112 108 106 101 96 96 95 92 86 87 88 86 85 91 113 128 122 116 117 114 102 85 70 61 61 69 84 95 96 96 94 88 85 82 80 79 79 79 77 76 73 71 72 72
148 145 150 157 165 168 166 166 167 165 165 166 165 165 161 156 155 151 143 140 141 138 135 133 133 135 136 136 135 136 136 133 128 130 130 127 125 124 123 120 117 114 108 106 99 91 93 94 97 93 85 87 90 94 96 108 118 118 119 121 119 107 87 71 60 66 80 88 90 90 92 93 91 88 83 80 78 78 79 78 79 78 76 75 75
146 145 148 157 168 168 165 167 165 165 165 164 165 162 154 152 155 145 141 144 144 142 138 138 139 139 140 140 139 138 137 132 128 130 132 131 130 129 129 126 121 114 108 107 101 95 95 95 97 92 86 92 96 101 106 113 118 122 125 124 120 105 77 60 50 69 87 89 87 89 90 93 94 91 87 83 81 80 80 80 80 80 79 78 76
145 145 147 158 170 168 165 166 164 166 165 163 163 155 147 150 150 140 141 146 147 145 141 143 144 143 145 144 145 143 141 135 130 129 130 131 131 133 133 131 123 113 112 110 107 102 95 92 88 81 87 96 100 108 115 119 121 123 124 122 114 87 63 55 58 79 90 91 93 96 96 94 95 95 90 86 85 83 81 81 81 81 79 77 75
143 145 153 162 166 165 163 163 161 162 160 156 154 147 146 147 146 140 143 150 151 149 146 150 147 145 147 148 149 147 146 141 134 131 130 130 131 135 136 130 121 118 118 114 112 106 95 89 84 77 85 96 104 117 123 123 122 122 119 115 99 77 67 64 68 86 91 92 94 95 99 98 97 97 92 89 86 83 82 81 81 81 79 78 75
141 150 157 156 154 160 160 158 155 151 147 145 144 142 145 146 145 143 145 148 149 150 151 154 150 146 149 152 152 150 149 145 141 138 137 137 136 140 140 127 120 126 123 116 114 108 97 89 82 75 83 97 109 123 127 126 124 121 115 106 92 77 72 73 80 89 90 91 91 92 98 101 101 99 96 92 87 84 81 79 79 79 79 78 77
141 149 150 144 146 152 149 149 147 141 140 140 143 143 146 147 143 142 140 137 136 143 152 155 152 147 150 155 156 153 152 147 148 148 148 150 147 148 143 130 127 129 122 117 114 107 98 87 79 77 87 101 113 127 131 130 127 121 114 102 85 75 73 78 86 91 92 93 92 94 96 98 100 99 98 94 89 86 81 79 78 78 79 78 77
142 143 138 137 138 140 138 139 139 140 141 139 144 145 148 146 139 139 136 134 132 136 147 156 156 150 153 162 160 155 155 156 157 157 158 162 161 161 151 141 138 131 121 118 111 105 98 86 80 81 92 105 118 131 134 132 128 120 109 95 82 77 77 81 88 91 91 93 92 92 93 94 94 93 93 92 91 86 81 80 79 80 80 79 79
142 139 132 129 129 131 131 133 140 142 142 142 144 142 143 140 141 143 142 144 143 136 139 151 158 160 163 166 165 160 161 166 168 169 172 176 179 181 177 158 146 134 124 122 112 105 101 92 83 84 95 107 120 133 138 134 125 115 101 90 84 81 79 81 87 91 92 94 94 94 94 89 86 88 87 88 90 86 84 82 80 81 82 82 81
140 135 128 125 124 126 129 133 139 134 130 133 138 143 144 142 148 153 152 152 149 146 143 147 158 167 175 174 171 169 170 175 178 182 185 192 196 195 193 172 153 140 132 129 119 110 110 104 88 86 98 107 119 131 137 131 120 111 102 96 92 90 89 89 92 93 94 95 97 103 104 97 88 89 89 89 89 87 87 86 83 80 78 78 78
142 136 127 121 121 126 131 130 128 124 118 118 131 151 158 156 159 162 160 158 155 157 158 160 162 166 177 182 184 184 183 184 189 195 198 204 206 204 200 180 163 153 145 138 130 121 119 118 104 90 98 108 118 124 126 124 118 112 107 102 96 90 87 91 101 102 103 104 102 105 110 111 99 91 91 91 90 87 84 81 78 73 70 70 73
138 125 118 122 132 137 133 127 129 129 128 134 146 160 169 168 165 164 164 166 166 167 168 172 171 166 172 182 190 193 193 196 201 204 206 212 211 211 208 188 175 167 158 150 145 137 132 131 122 102 102 109 115 121 122 120 115 110 104 95 86 82 77 82 99 104 108 111 109 110 112 107 96 89 85 85 88 84 79 75 72 70 70 69 70
102 92 111 140 146 138 131 132 140 142 145 152 156 163 172 172 168 167 169 174 177 177 177 179 176 171 172 177 183 183 190 203 202 203 213 215 208 210 209 196 186 178 169 162 159 152 145 143 137 122 113 111 116 124 122 116 111 107 100 92 88 82 74 89 108 109 111 112 112 111 105 96 92 89 86 85 86 82 77 76 76 73 73 73 73
89 95 128 155 145 131 135 145 151 155 157 157 157 167 172 166 166 168 173 181 183 185 181 177 175 176 178 172 165 165 182 195 188 198 220 223 214 212 211 204 196 188 179 173 172 167 158 155 152 139 128 120 120 126 122 112 107 101 95 93 90 80 73 99 114 115 119 122 116 109 103 102 100 93 92 88 84 82 78 77 80 81 78 75 75
112 129 145 151 141 134 146 155 159 162 159 155 160 172 168 158 160 163 171 183 185 187 179 170 174 184 191 175 167 182 199 202 198 203 209 220 223 217 217 212 208 199 187 183 182 178 173 168 164 154 144 134 125 126 121 111 102 91 88 86 87 93 100 111 117 121 122 125 125 123 121 116 109 98 94 89 85 87 86 82 82 87 87 80 77
141 144 140 143 148 147 151 159 165 166 160 157 163 170 162 156 162 165 170 180 182 184 178 176 184 192 200 188 184 199 205 203 204 206 201 209 221 220 222 218 215 210 197 194 192 189 190 184 179 171 161 153 146 151 149 124 94 72 83 87 96 114 117 112 122 131 127 126 132 129 122 116 113 107 100 97 93 89 87 85 84 89 92 86 84
136 133 136 142 152 153 154 160 164 167 164 162 167 169 167 165 166 167 174 183 184 186 186 187 190 192 201 203 201 207 208 202 197 200 204 207 213 221 227 222 219 215 207 204 201 201 202 199 194 185 178 175 170 186 203 191 8 2 82 103 132 155 137 125 137 145 141 135 136 129 120 120 116 108 105 104 101 93 90 88 85 92 96 89 85
125 130 136 142 150 154 157 161 163 166 169 171 173 173 175 176 171 170 177 188 191 191 194 197 196 193 200 211 215 218 218 212 200 194 196 203 216 227 232 229 224 219 214 211 211 214 212 209 209 201 194 193 193 205 211 200 229 255 169 159 165 172 152 144 157 162 155 139 140 140 131 128 121 113 112 109 108 100 98 95 84 92 103 94 80
129 135 140 146 152 156 158 160 163 167 174 178 176 177 180 181 178 177 181 192 201 201 200 205 207 204 207 215 224 229 226 224 211 194 192 198 209 213 216 225 226 227 221 211 211 221 220 215 216 216 208 208 224 226 216 200 205 215 178 179 196 183 160 152 161 167 157 128 145 150 139 132 133 125 117 114 116 109 106 107 90 91 103 98 85
131 135 145 151 152 156 159 161 168 174 180 179 177 180 182 185 186 184 185 193 206 209 206 215 220 217 220 223 235 243 235 234 229 213 207 204 207 208 204 205 213 226 231 215 208 218 220 216 216 222 222 222 232 223 213 204 199 212 185 185 212 192 167 152 153 171 177 153 150 157 150 142 142 132 124 122 121 121 115 110 100 98 107 106 100
130 137 145 149 151 155 160 164 171 179 183 179 176 179 181 187 189 188 193 196 202 209 207 227 239 242 239 231 233 244 240 236 234 231 225 218 218 220 213 205 206 213 229 223 215 218 217 218 218 218 224 230 234 218 207 205 199 208 190 186 205 182 166 145 137 159 170 165 154 156 160 154 148 140 138 137 134 135 123 110 107 109 116 114 106
132 141 146 150 156 157 161 166 170 179 186 180 171 174 181 191 192 191 197 194 187 198 209 228 237 244 246 234 221 226 232 231 233 238 237 232 227 224 221 216 212 206 218 226 223 223 216 218 222 214 219 231 236 219 200 203 201 205 205 195 192 177 174 160 148 152 151 165 166 157 167 163 155 152 151 149 146 139 126 120 122 123 122 117 106
136 142 146 151 158 157 158 167 171 176 183 181 173 178 187 194 197 194 194 186 188 199 207 224 229 229 239 233 215 214 226 231 235 241 241 241 236 228 224 222 219 207 213 225 228 231 221 217 224 217 217 226 233 219 200 200 204 206 209 198 189 188 182 172 163 155 159 182 183 167 174 171 166 167 161 150 146 141 134 137 133 130 128 120 115
139 144 145 150 157 155 158 168 172 173 177 181 179 188 195 193 196 195 188 187 199 207 205 219 225 224 239 239 227 224 230 234 234 236 241 247 245 235 226 225 224 211 212 222 227 235 225 218 226 222 217 220 223 217 206 207 215 214 209 201 196 195 181 170 169 162 174 191 182 169 175 178 181 179 168 154 152 152 151 148 139 132 131 126 125
139 145 146 150 152 153 161 165 171 174 175 181 182 186 190 188 193 197 201 205 214 219 215 228 232 228 246 253 251 245 240 239 235 233 235 241 240 232 225 227 228 218 214 216 224 231 217 215 227 224 221 224 223 223 218 216 222 218 210 206 198 196 184 173 176 169 173 184 180 178 174 174 180 181 175 166 163 168 165 154 144 136 135 133 131
133 139 141 143 148 158 167 165 171 179 180 188 187 185 187 187 199 213 221 220 206 203 201 212 233 240 245 247 247 243 239 238 233 224 221 223 224 226 227 229 230 225 221 219 226 230 214 212 223 224 226 230 231 230 222 221 228 222 212 206 199 196 184 174 179 175 174 179 179 183 184 175 175 177 181 178 176 181 176 159 150 143 137 136 137
126 126 126 127 137 150 159 160 167 175 181 192 193 193 192 185 205 225 233 237 207 192 194 201 224 233 233 237 240 237 230 224 223 220 217 217 215 218 224 228 231 230 227 225 228 231 221 215 220 225 225 227 234 234 224 223 231 230 217 205 200 196 182 175 179 174 178 182 180 183 182 179 177 172 180 187 188 196 189 162 155 155 144 142 142
118 117 117 117 122 126 128 142 150 166 177 185 190 199 206 194 207 228 235 248 231 213 214 216 217 217 226 240 244 243 237 226 226 229 227 223 218 219 224 227 232 231 229 229 228 229 224 220 220 223 227 225 229 236 235 230 229 231 220 206 202 194 183 183 180 172 180 185 184 185 178 182 184 176 183 191 188 197 196 174 169 167 153 148 147
115 117 119 122 124 122 123 132 138 157 168 176 184 192 209 203 205 217 212 202 206 212 215 218 212 208 218 231 238 246 248 241 235 230 229 229 226 227 227 229 231 229 229 229 228 226 225 227 224 221 227 230 231 235 236 234 236 240 222 206 202 191 185 186 180 176 183 184 187 187 179 187 187 180 187 186 184 193 190 183 181 167 154 155 155
118 119 120 125 128 123 121 125 121 123 130 151 165 168 189 193 194 205 201 195 205 212 211 216 215 213 217 221 227 236 239 234 230 227 226 230 233 233 230 227 227 227 227 227 228 229 227 231 230 226 225 228 237 237 231 230 237 251 240 219 210 190 186 189 180 180 186 184 189 185 176 182 181 183 188 181 188 190 171 173 177 165 160 164 164
119 120 121 123 124 121 118 117 112 108 108 120 133 145 176 201 209 207 213 216 216 214 215 218 216 221 225 216 213 220 223 219 217 217 221 223 224 227 229 226 224 228 231 228 229 232 232 232 232 232 228 229 237 239 244 240 237 250 253 247 237 195 184 186 178 183 191 188 189 182 178 181 177 183 185 181 193 189 162 159 162 163 165 168 167
116 118 122 122 122 122 117 111 110 104 94 82 84 86 327 280 258 256 252 242 233 224 227 234 227 232 231 214 207 217 224 221 213 211 218 222 217 218 224 225 225 231 235 232 230 232 233 232 233 235 232 235 240 240 248 252 246 253 253 260 261 210 180 177 176 185 193 190 188 179 181 182 175 181 184 182 191 191 173 160 155 161 166 167 169
114 116 118 121 121 121 114 106 104 97 83 62 50 47 357 334 316 301 288 271 260 238 233 244 237 232 231 218 212 219 227 227 217 215 223 224 217 218 220 222 223 228 234 234 233 232 232 234 235 237 236 236 240 240 243 247 248 255 254 259 263 224 185 176 179 190 189 186 187 182 182 182 176 184 192 187 183 189 189 171 162 171 173 169 172
116 117 117 118 116 114 108 99 94 85 73 66 51 39 4 336 321 311 316 305 287 264 252 258 247 239 237 222 216 222 229 233 229 225 229 229 224 223 223 223 222 226 232 234 233 230 230 233 234 236 236 236 237 235 234 232 211 204 239 260 255 231 208 185 186 197 192 186 189 190 189 185 178 179 196 194 185 191 198 182 173 181 181 172 175
116 119 117 116 118 115 106 95 90 83 65 70 51 22 7 333 316 305 309 304 294 284 267 265 258 253 248 231 227 228 227 234 237 228 229 234 234 231 227 225 223 226 231 231 232 229 227 228 229 232 233 233 234 230 227 222 199 185 205 253 234 214 218 200 201 208 204 198 197 200 196 190 184 176 189 202 195 195 200 195 187 187 186 179 179
115 116 115 116 116 109 99 95 91 84 63 56 26 5 347 324 316 302 300 293 285 278 269 268 262 255 250 241 238 234 229 229 229 226 230 234 235 236 234 229 227 228 229 230 230 228 227 226 224 227 229 228 230 229 228 224 210 190 182 255 230 185 218 203 199 210 211 208 209 210 204 194 187 179 187 199 196 194 195 193 192 192 192 186 184
101 101 110 113 109 103 100 98 93 88 68 51 359 335 328 319 311 296 289 274 266 262 258 261 261 255 250 247 244 240 235 232 230 234 241 239 234 237 238 234 232 231 228 230 230 227 226 224 219 221 226 227 225 222 223 225 220 205 190 206 215 214 244 170 167 200 208 208 213 215 214 203 195 191 193 192 188 191 193 189 187 192 195 186 184
90 90 95 94 96 102 105 94 90 97 69 30 321 306 306 302 299 297 294 285 279 271 265 270 274 269 263 258 253 246 242 240 238 242 248 246 237 235 239 237 233 231 229 228 229 228 225 223 220 220 225 229 225 215 213 219 221 214 206 209 222 260 244 148 146 184 195 207 215 213 212 204 202 203 200 194 186 187 196 195 186 185 191 188 184
81 77 64 60 66 72 81 83 83 97 61 297 289 294 294 291 293 294 293 294 295 295 298 302 297 287 281 273 263 255 248 243 243 243 245 246 239 234 238 241 237 234 232 229 230 228 225 225 221 217 219 225 224 217 213 213 214 215 215 219 231 245 195 145 157 150 166 211 221 215 208 204 212 211 204 203 195 187 194 200 194 185 188 189 188
72 64 47 41 43 38 42 54 41 20 9 308 292 291 291 296 300 297 291 289 291 295 300 302 299 292 287 280 271 266 257 248 246 244 241 241 241 239 238 242 243 239 235 235 234 229 226 226 223 216 216 221 223 221 218 216 215 215 212 215 224 226 192 155 170 157 124 183 207 217 211 207 217 217 209 207 202 196 194 198 200 194 190 185 187
79 74 63 45 32 24 27 31 14 7 8 343 323 313 305 308 307 304 302 302 303 303 303 302 300 297 291 286 278 271 264 256 251 250 249 245 244 246 243 243 246 243 239 240 240 234 228 228 224 217 214 216 220 222 220 216 216 214 209 212 216 212 186 159 171 168 163 168 168 198 192 195 214 220 216 211 207 205 195 192 199 197 193 183 179
96 97 98 84 65 48 31 26 14 5 360 348 340 333 325 322 316 312 312 314 315 314 312 308 305 302 298 292 285 276 269 265 261 257 255 250 246 248 246 244 244 243 243 244 244 240 233 230 228 221 218 218 217 216 215 215 215 212 211 212 208 198 180 157 179 187 187 181 176 197 187 185 199 212 215 211 205 204 195 191 194 192 192 187 178
92 89 84 75 73 64 32 32 41 13 355 351 344 334 328 323 318 313 311 312 314 314 313 312 310 308 304 300 295 288 279 274 271 266 261 256 251 248 247 247 245 242 243 245 245 241 234 231 231 227 220 217 214 211 211 212 213 210 209 211 210 209 205 193 191 191 187 181 180 198 204 201 198 198 205 206 200 197 195 193 190 187 188 187 183